Updated29/06/2022 11:35 
 

GeoURL
free counters
Scottish Weather Network UK Weather Network Cumulus Top Weather Sites

Peebles Weather - Tide Information

Raw Data, Raw Data Expanded


Daytime temperatures are in direct sunlight so may be higher than official air temperature values.
As with any other website, we log your IP address and browser type in the server logs for diagnostic reasons. Cookies are used to record visit time and gauges preferences. No personal information is stored or processed.

All times are in local time (GMT, or BST in summer) unless specified.

2022/06/29 10:20 EGPH 291020Z 15008KT 120V190 9999 -RA FEW019 BKN046 16/13 Q1007
14.8°C 0.6 mm 0.9 mm 1.5 mm 3.2 mph 6.9 mph 1008.7 hPa 79% X-Ray Solar Flare Level
Planetary K-Index
Planetary K-Index History
Station Warn Rain Snow Flood Wind Ltng Heat Cold Glob Moon Temp Rain 1h Rain Wed Rain 24h Wind 10m Gust Pressure Hum Proton Levels

m New moon Cool F1-S F: A: Kp:0 SSN:0

Tides

 

XHTML 1.1 | CSS